sat.trackr.live / text

‹ back to catalog

STARLINK-30831

NORAD 58153 · 2023-166D

PAYLOAD ACTIVE UNKNOWN

§ Identity

Operator
Country
US
Launch date
2023-10-29
Launch site
AFWTR
Launch vehicle
Mass (kg)
RCS (m²)

Purposes: comms

External: N2YO · Heavens-Above · Gunter

§ Orbital elements

Epoch: 2026-09-20T20:12:06.915744Z

Period
94.01 min
Inclination
53.1589°
Eccentricity
0.0001338
Mean motion
15.31715424 rev/d
Perigee alt
469.8 km
Apogee alt
471.6 km
Semi-major
6,848.8 km
B*
5.4373e-5
RAAN
32.0395°
Arg perigee
87.2031°
Mean anomaly
272.9124°
Rev number
16,307

§ Raw data

STARLINK-308311 58153U 23166D   26263.84174671  .00001323  00000+0  54373-4 0  99912 58153  53.1589  32.0395 0001338  87.2031 272.9124 15.31715424163070

JSON: /api/v1/satellites/58153 · /tle

For live sub-satellite position, see the globe view (requires WebGL).

§ Visibility from observer

Set your observer location to see the next 7 days of passes ≥ 10°. The values pass through the URL so the page stays shareable.

No JS? Fill the form by hand. The geolocation button needs JavaScript.